{"data":{"norad_id":64599,"epoch":"2026-05-24T23:35:21.414336Z","epoch_age_seconds":76392,"freshness":"FRESH","line1":"1 64599U 25137F   26144.98288674  .00020836  00000+0  71321-3 0  9995","line2":"2 64599  53.1603 341.0103 0000567 117.6843 242.4216 15.30218616 52419","mean_motion":15.30218616,"eccentricity":5.67e-5,"inclination_deg":53.1603,"raan_deg":341.0103,"arg_perigee_deg":117.6843,"mean_anomaly_deg":242.4216,"bstar":0.00071321,"rev_number":5241,"period_min":94.104200860147,"perigee_km":474.77090405164,"apogee_km":475.54806787314,"semimajor_km":6853.2964859624,"source":"CELESTRAK","updated_at":"2026-05-25T13:38:20.464870Z"}}